Regional Weather Roundup
Issued by NWS

Home | Current Version | Previous Version | Text Only | Print | Product List | Glossary On
Versions: 1 2 3 4 5 6 7 8 9 10 11 12 13 14 15 16 17 18 19 20 21 22 23 24 25 26 27 28 29 30 31 32 33 34 35 36 37 38 39 40 41 42 43 44 45 46 47 48 49 50
000
ASUS43 KMKX 271000
RWRWI

WISCONSIN REGIONAL WEATHER ROUNDUP
NATIONAL WEATHER SERVICE MILWAUKEE/SULLIVAN WI
400 AM CST MON FEB 27 2017

NOTE: "FAIR" INDICATES FEW OR NO CLOUDS BELOW 12,000 FEET WITH NO
SIGNIFICANT WEATHER AND/OR OBSTRUCTIONS TO VISIBILITY.

WIZ001-002-006>008-014>016-023>028-271100-
NORTHWEST WISCONSIN

CITY           SKY/WX    TMP DP  RH WIND       PRES   REMARKS
SUPERIOR ARPT  CLOUDY    15   8  73 S3        29.99S
ASHLAND        CLOUDY    14   9  80 CALM      30.00S
HAYWARD        CLOUDY    20  11  68 CALM      29.95F
SIREN          LGT SNOW  23  17  79 CALM      29.96S
CUMBERLAND     CLOUDY    25  18  74 E3        29.94F
RICE LAKE      CLOUDY    25  17  72 E3        29.98S
CHETEK         CLOUDY    24  15  68 CALM      29.97S
LADYSMITH      CLOUDY    23  12  63 SE6       29.99S WCI  16
EAU CLAIRE     NOT AVBL
MENOMONIE      MOCLDY    23  18  83 SE6       29.98F WCI  15
NEW RICHMOND   CLOUDY    27  21  80 SE5       29.95F WCI  21
OSCEOLA        CLOUDY    27  19  73 E5        29.97F WCI  21
$$

WIZ003>005-009-010-017-018-271100-
NORTH CENTRAL WISCONSIN

CITY           SKY/WX    TMP DP  RH WIND       PRES   REMARKS
MANITOWISH WTR MOCLDY     0  -2  90 CALM      29.96S
ARBOR VITAE    CLOUDY     9   6  87 CALM        N/A
WOODRUFF       CLOUDY     9   6  87 CALM        N/A
RHINELANDER    CLOUDY   N/A N/A N/A CALM      29.97F
EAGLE RIVER    PTCLDY     0  -4  82 CALM      29.96F
LAND O LAKES   PTCLDY    -6 -10  83 CALM      29.99S
PHILLIPS       CLOUDY    13   9  85 CALM      29.96S
TOMAHAWK       CLOUDY    11   8  89 CALM      29.99S
MEDFORD        CLOUDY    20  14  77 CALM      29.98R
MERRILL        NOT AVBL
$$

WIZ029-030-035-036-043>047-271100-
CENTRAL WISCONSIN

CITY           SKY/WX    TMP DP  RH WIND       PRES   REMARKS
WAUSAU         CLOUDY    22  17  81 E3        30.00R
MOSINEE        CLOUDY    19  19 100 S3        30.02R
MARSHFIELD     CLOUDY    23  20  88 SE3       29.99S
STEVENS POINT  CLOUDY    19  19 100 CALM      30.03R
WAUPACA        CLEAR     20  17  88 CALM      30.05S
WAUTOMA        CLEAR     17  15  92 CALM      30.06
WISC RAPIDS    CLOUDY    22  21  96 S3        30.03S
CAMP DOUGLAS   NOT AVBL
$$

WIZ011>013-019>022-031-037>040-048>050-271100-
NORTHEAST WISCONSIN

CITY           SKY/WX    TMP DP  RH WIND       PRES   REMARKS
ANTIGO         CLOUDY    14  11  90 NE3       29.99S
SHAWANO        PTCLDY    21  18  88 CALM      30.06S
OCONTO         CLEAR     18  12  79 CALM      30.08R
STURGEON BAY   CLEAR     21  15  78 CALM      30.08R
GREEN BAY      CLEAR     23  15  71 NE6       30.07S WCI  16
MANITOWOC      NOT AVBL
APPLETON       CLEAR     25  19  80 SW3       30.04R
CLINTONVILLE   CLEAR     19  18  93 CALM      30.05S
OSHKOSH        CLEAR     24  19  81 S5        30.06R WCI  18
$$

WIZ032>034-041-042-053>061-271100-
SOUTHWEST WISCONSIN

CITY           SKY/WX    TMP DP  RH WIND       PRES   REMARKS
LA CROSSE      CLEAR     26  23  88 SE7       30.03S WCI  18
SPARTA         CLEAR     16  15  95 E3        30.05R
VIROQUA        CLEAR     22  21  96 S6        30.02S WCI  15
BOSCOBEL       CLEAR     20  17  88 CALM      30.07S FOG
PRAIRIE DU CHI CLEAR     23  22  93 SE5       30.06S WCI  17
PLATTEVILLE    CLEAR     28  26  95 CALM      30.06R
$$

WIZ056-057-062-063-064-067-068-271100-
SOUTH CENTRAL WISCONSIN

CITY           SKY/WX    TMP DP  RH WIND       PRES   REMARKS
REEDSBURG      CLEAR     25  23  94 CALM      30.05S
BARABOO/DELLS  CLEAR     23  21  91 S6        30.05S WCI  16
LONE ROCK      NOT AVBL
MINERAL POINT  CLEAR     30  28  93 CALM      30.04S
MADISON        CLEAR     23  20  88 CALM      30.06F
MIDDLETON      CLEAR     26  23  89 CALM      30.07S
WATERTOWN      CLEAR     22  22 100 CALM      30.08R
MONROE         PTCLDY    28  25  86 CALM      30.06R
JANESVILLE     PTCLDY    27  27 100 CALM      30.08S
$$

WIZ051-052-058>065-066-070>072-271100-
SOUTHEAST WISCONSIN

CITY           SKY/WX    TMP DP  RH WIND       PRES   REMARKS
MILWAUKEE      CLEAR     26  19  74 CALM      30.09R
WAUKESHA       CLEAR     23  21  93 S3        30.09R
MILWAUKEE/TIMM PTCLDY    28  21  74 CALM      30.10R
RACINE         CLEAR     28  24  85 W5        30.11S WCI  23
KENOSHA        PTCLDY    28  23  81 CALM      30.10R
FOND DU LAC    CLEAR     24  18  77 S5        30.08R WCI  18
SHEBOYGAN      CLEAR     25  20  81 SW5       30.08R WCI  19
WEST BEND      CLEAR     25  23  93 CALM      30.08R
JUNEAU         CLEAR     27  23  84 CALM      30.08S
$$

LSZ147-162-271100-
LAKE SUPERIOR

STATION/POSITION TIME  TEMP    WIND        PRES    WAVE
                       AIR SEA DIR/SP/G            HT/PER
                 (UTC) (F)     (DEG/KT/KT) (MB)    (FT/S)
DEVILS ISLAND    0900   24     210/  8/ 10 1016.5R
PORT WING        0930   15     140/  2/  4 1015.6S
SAXON HARBOR     0930   11     200/  5/  6 1015.9S
$$

LMZ867-665-643>646-271100-
LAKE MICHIGAN

STATION/POSITION TIME  TEMP    WIND        PRES    WAVE
                       AIR SEA DIR/SP/G            HT/PER
                 (UTC) (F)     (DEG/KT/KT) (MB)    (FT/S)
CHAMBERS ISLAND  0940   22      CALM  /  2 1017.9R
NORTHPORT PIER   0940   24     300/  2/  8 1018.6R
SISTER BAY       0850   21      10/  6/  7   N/A
KEWAUNEE LAKESHO 0930   24     300/  1/  2 1017.9R
SHEBOYGAN LAKESH 0900   31     280/  8/  9 1018.8R
PORT WASHINGTON  0930   31     290/  4/  7 1019.6R
MILWAUKEE LAKESH 0930   34     290/  5/  6   N/A
KENOSHA   LAKESH 0900   34     270/  6/  7 1019.3
$$

TC  - TEMPERATURE IN CELSIUS
VSB - VISIBILITY IN STATUTE MILES
WCI - WIND CHILL INDEX
HX  - HEAT INDEX




USA.gov is the U.S. government's official web portal to all federal, state and local government web resources and services.